Weather History for KOGB - June, 2013

Change the Weather History Date:

Sunday, June 30, 2013

  Actual Average Record
Temperature  
Mean Temperature 80 °F 81 °F  
Max Temperature 89 °F 91 °F 103 °F (2012)
Min Temperature 71 °F 70 °F 57 °F (1962)
Degree Days  
Heating Degree Days 0 0  
Month to date heating degree days 0 0  
Since 1 June heating degree days 0 1  
Since 1 July heating degree days 2181 2333  
Cooling Degree Days 15 16  
Month to date cooling degree days 424 398  
Year to date cooling degree days 686 701  
Since 1 June cooling degree days 424 398  
Growing Degree Days 30 (Base 50)    
Moisture  
Dew Point 71 °F    
Average Humidity 88    
Maximum Humidity 93    
Minimum Humidity 57    
Precipitation  
Precipitation 0.56 in 0.17 in 1.53 in (2014)
Month to date precipitation 6.89 5.12  
Year to date precipitation 24.27 22.74  
Sea Level Pressure  
Sea Level Pressure 29.79 in    
Wind  
Wind Speed 5 mph (SSW)    
Max Wind Speed 17 mph    
Max Gust Speed 24 mph    
Visibility 8 miles    
Events Rain    
T = Trace of Precipitation, MM = Missing Value Source: NWS Daily Summary

Daily Weather History Graph

Daily Weather History Graph

Search for Another Location

Airport or City:

Trip Planner

Search our weather history database for the weather conditions in past years. The results will help you decide how hot, cold, wet, or windy it might be!

Date:

Astronomy

Jun. 30, 2013 Rise Set
Actual Time 6:16 AM EDT 8:37 PM EDT
Civil Twilight 5:48 AM EDT 9:06 PM EDT
Nautical Twilight 5:12 AM EDT 9:41 PM EDT
Astronomical Twilight 4:34 AM EDT 10:20 PM EDT
Moon 1:00 AM EDT (6/30) 2:03 PM EDT (6/30)
Length of Visible Light 15h 18m
Length of Day
14h 20m
Last Quarter, 45% of the Moon is Illuminated
Jun 30
Last Quarter
Jul 8
New
Jul 15
First Quarter
Jul 22
Full
Jul 29
Last Quarter

Hourly Weather History & Observations

Time (EDT) Temp. Heat Index Dew Point Humidity Pressure Visibility Wind Dir Wind Speed Gust Speed Precip Events Conditions
12:53 AM 75.0 °F - 72.0 °F 90% 29.76 in 10.0 mi South 4.6 mph - N/A   Scattered Clouds
1:53 AM 73.9 °F - 72.0 °F 93% 29.75 in 10.0 mi SSW 3.5 mph - N/A   Clear
2:53 AM 73.0 °F - 71.1 °F 93% 29.74 in 9.0 mi South 3.5 mph - N/A   Clear
3:53 AM 73.0 °F - 71.1 °F 93% 29.73 in 8.0 mi SSW 3.5 mph - N/A   Clear
4:53 AM 73.0 °F - 71.1 °F 93% 29.73 in 7.0 mi SSW 4.6 mph - N/A   Clear
5:36 AM 73.4 °F - 71.6 °F 94% 29.76 in 7.0 mi South 3.5 mph - N/A   Scattered Clouds
5:45 AM 73.4 °F - 71.6 °F 94% 29.76 in 7.0 mi South 3.5 mph - N/A   Mostly Cloudy
5:53 AM 73.0 °F - 71.1 °F 93% 29.75 in 8.0 mi South 4.6 mph - N/A   Mostly Cloudy
6:46 AM 73.4 °F - 71.6 °F 94% 29.78 in 6.0 mi South 3.5 mph - N/A   Overcast
6:53 AM 73.9 °F - 72.0 °F 93% 29.78 in 6.0 mi South 4.6 mph - N/A   Overcast
7:03 AM 73.4 °F - 71.6 °F 94% 29.79 in 7.0 mi South 4.6 mph - N/A   Overcast
7:25 AM 73.4 °F - 71.6 °F 94% 29.79 in 8.0 mi SSW 5.8 mph - N/A   Overcast
7:50 AM 75.2 °F - 73.4 °F 94% 29.79 in 8.0 mi SSW 6.9 mph - N/A   Overcast
7:53 AM 75.0 °F - 72.0 °F 90% 29.79 in 8.0 mi SSW 6.9 mph - N/A   Overcast
8:09 AM 75.2 °F - 71.6 °F 89% 29.80 in 9.0 mi SW 8.1 mph - N/A   Overcast
8:53 AM 77.0 °F - 73.0 °F 88% 29.80 in 8.0 mi SW 9.2 mph - N/A   Overcast
9:53 AM 78.1 °F - 73.0 °F 84% 29.80 in 9.0 mi SW 10.4 mph - N/A   Overcast
10:22 AM 78.8 °F - 71.6 °F 78% 29.81 in 10.0 mi WSW 10.4 mph - N/A   Overcast
10:53 AM 80.1 °F 83.8 °F 72.0 °F 76% 29.80 in 9.0 mi SW 8.1 mph - N/A   Overcast
11:03 AM 80.6 °F 84.6 °F 71.6 °F 74% 29.81 in 10.0 mi WSW 8.1 mph - N/A   Overcast
11:37 AM 82.4 °F 88.2 °F 73.4 °F 74% 29.80 in 10.0 mi SW 6.9 mph - N/A   Scattered Clouds
11:53 AM 84.0 °F 89.6 °F 72.0 °F 67% 29.79 in 10.0 mi WSW 6.9 mph - N/A   Partly Cloudy
12:53 PM 86.0 °F 91.5 °F 71.1 °F 61% 29.78 in 10.0 mi Calm Calm - N/A   Scattered Clouds
1:53 PM 86.0 °F 90.7 °F 70.0 °F 59% 29.77 in 10.0 mi Variable 3.5 mph - N/A   Scattered Clouds
2:53 PM 88.0 °F 93.8 °F 71.1 °F 57% 29.74 in 10.0 mi SE 9.2 mph - N/A   Scattered Clouds
3:53 PM 77.0 °F - 73.0 °F 88% 29.77 in 3.0 mi SSW 10.4 mph 17.3 mph 0.04 in Rain Rain
4:10 PM 75.2 °F - 73.4 °F 94% 29.78 in 2.5 mi South 9.2 mph - 0.06 in Rain Rain
4:18 PM 75.2 °F - 73.4 °F 94% 29.79 in 3.0 mi South 5.8 mph - 0.07 in Rain Rain
4:53 PM 75.0 °F - 72.0 °F 90% 29.79 in 6.0 mi SSE 3.5 mph - 0.14 in Rain Rain
5:53 PM 73.9 °F - 72.0 °F 93% 29.79 in 8.0 mi SSE 3.5 mph - 0.02 in Rain Light Rain
6:12 PM 73.4 °F - 71.6 °F 94% 29.82 in 4.0 mi South 6.9 mph - 0.02 in Rain Rain
6:44 PM 73.4 °F - 69.8 °F 88% 29.83 in 2.5 mi SW 5.8 mph - 0.16 in Rain Heavy Rain
6:53 PM 72.0 °F - 70.0 °F 93% 29.83 in 2.0 mi South 6.9 mph - 0.22 in Rain Heavy Rain
7:06 PM 71.6 °F - 69.8 °F 94% 29.82 in 3.0 mi SE 4.6 mph - 0.05 in Rain Heavy Rain
7:53 PM 71.1 °F - 69.1 °F 93% 29.81 in 10.0 mi SSE 5.8 mph - 0.14 in Rain Light Rain
7:58 PM 71.6 °F - 69.8 °F 94% 29.81 in 10.0 mi South 3.5 mph - 0.00 in Rain Light Rain
8:53 PM 71.1 °F - 69.1 °F 93% 29.83 in 10.0 mi West 4.6 mph - 0.00 in   Mostly Cloudy
9:53 PM 71.1 °F - 69.1 °F 93% 29.84 in 10.0 mi Calm Calm - 0.00 in   Overcast
10:53 PM 71.1 °F - 69.1 °F 93% 29.84 in 10.0 mi Calm Calm - N/A   Overcast
11:20 PM 71.6 °F - 69.8 °F 94% 29.85 in 9.0 mi Calm Calm - N/A   Overcast
11:53 PM 71.1 °F - 69.1 °F 93% 29.86 in 10.0 mi South 4.6 mph - N/A   Overcast